Weather History for West Palm Beach, FL

Change the Weather History Date:

Friday, April 18, 2014

  Actual Average Record
Temperature  
Mean Temperature 79 °F 74 °F  
Max Temperature 84 °F 82 °F 91 °F (1967)
Min Temperature 73 °F 66 °F 49 °F (1983)
Degree Days  
Heating Degree Days 0 0  
Month to date heating degree days 0 0  
Since 1 July heating degree days 122 229  
Cooling Degree Days 14 9  
Month to date cooling degree days 190 146  
Year to date cooling degree days 738 574  
Growing Degree Days 28 (Base 50)    
Moisture  
Dew Point 70 °F    
Average Humidity 76    
Maximum Humidity 93    
Minimum Humidity 58    
Precipitation  
Precipitation 0.04 in 0.12 in 2.37 in (1957)
Month to date precipitation 0.79 2.34  
Year to date precipitation 14.67 12.88  
Snow  
Snow 0.00 in - - ()
Month to date snowfall 0.0  
Since 1 July snowfall 0.0  
Snow Depth 0.00 in    
Sea Level Pressure  
Sea Level Pressure 30.02 in    
Wind  
Wind Speed 15 mph (SE)    
Max Wind Speed 24 mph    
Max Gust Speed 29 mph    
Visibility 10 miles    
Events Rain , Thunderstorm    
T = Trace of Precipitation, MM = Missing Value Source: NWS Daily Summary

Daily Weather History Graph

Daily Weather History Graph

Search for Another Location

Airport:

Trip Planner

Search our weather history database for the weather conditions in past years. The results will help you decide how hot, cold, wet, or windy it might be!

Date:

Astronomy

Apr. 18, 2014 Rise Set
Actual Time 6:53 AM EDT 7:46 PM EDT
Civil Twilight 6:29 AM EDT 8:09 PM EDT
Nautical Twilight 6:01 AM EDT 8:38 PM EDT
Astronomical Twilight 5:33 AM EDT 9:06 PM EDT
Moon 11:17 PM EDT (4/18) 9:26 AM EDT (4/18)
Length of Visible Light 13h 39m
Length of Day
12h 52m
Waning Gibbous, 87% of the Moon is Illuminated
Apr 18
Waning Gibbous
Apr 22
Last Quarter
Apr 29
New
May 6
First Quarter
May 14
Full

Hourly Weather History & Observations

Time (EDT) Temp. Heat Index Dew Point Humidity Pressure Visibility Wind Dir Wind Speed Gust Speed Precip Events Conditions
12:53 AM 75.9 °F - 70.0 °F 82% 30.09 in 10.0 mi ENE 12.7 mph - N/A   Scattered Clouds
1:16 AM 75.9 °F - 70.0 °F 82% 30.08 in 10.0 mi ENE 12.7 mph - N/A   Mostly Cloudy
1:44 AM 75.9 °F - 71.1 °F 85% 30.07 in 10.0 mi East 12.7 mph - 0.01 in Rain Light Rain
1:53 AM 75.0 °F - 70.0 °F 84% 30.07 in 10.0 mi ENE 15.0 mph - 0.01 in   Mostly Cloudy
2:53 AM 73.0 °F - 70.0 °F 90% 30.05 in 6.0 mi ESE 11.5 mph 27.6 mph 0.03 in Rain Rain
3:26 AM 73.0 °F - 70.0 °F 90% 30.04 in 10.0 mi East 6.9 mph - 0.00 in Thunderstorm Thunderstorm
3:44 AM 73.0 °F - 70.0 °F 90% 30.04 in 10.0 mi East 9.2 mph - 0.00 in   Mostly Cloudy
3:53 AM 73.0 °F - 70.0 °F 90% 30.04 in 10.0 mi East 6.9 mph - 0.00 in   Mostly Cloudy
4:53 AM 73.9 °F - 71.1 °F 91% 30.02 in 10.0 mi East 8.1 mph - N/A   Mostly Cloudy
5:53 AM 75.0 °F - 70.0 °F 84% 30.01 in 10.0 mi East 12.7 mph - N/A   Mostly Cloudy
6:27 AM 75.9 °F - 70.0 °F 82% 30.02 in 10.0 mi ESE 16.1 mph - N/A   Mostly Cloudy
6:40 AM 75.9 °F - 70.0 °F 82% 30.02 in 10.0 mi SE 10.4 mph - N/A   Mostly Cloudy
6:53 AM 75.9 °F - 70.0 °F 82% 30.02 in 10.0 mi ESE 11.5 mph - N/A   Mostly Cloudy
7:53 AM 78.1 °F - 70.0 °F 76% 30.05 in 10.0 mi SE 15.0 mph - N/A   Mostly Cloudy
8:53 AM 78.1 °F - 69.1 °F 74% 30.06 in 10.0 mi SE 16.1 mph - N/A   Mostly Cloudy
9:53 AM 81.0 °F 84.4 °F 70.0 °F 69% 30.05 in 10.0 mi SE 21.9 mph 27.6 mph N/A   Mostly Cloudy
10:06 AM 80.1 °F 82.7 °F 68.0 °F 67% 30.05 in 10.0 mi SSE 19.6 mph 29.9 mph N/A   Mostly Cloudy
10:28 AM 81.0 °F 83.3 °F 66.9 °F 62% 30.05 in 10.0 mi SSE 17.3 mph 24.2 mph N/A   Mostly Cloudy
10:53 AM 81.0 °F 83.3 °F 66.9 °F 62% 30.06 in 10.0 mi SSE 19.6 mph - N/A   Mostly Cloudy
11:53 AM 82.0 °F 84.5 °F 66.9 °F 60% 30.05 in 10.0 mi SE 20.7 mph 26.5 mph N/A   Mostly Cloudy
12:38 PM 82.0 °F 84.9 °F 68.0 °F 62% 30.04 in 10.0 mi SSE 18.4 mph 26.5 mph N/A   Mostly Cloudy
12:53 PM 82.0 °F 85.5 °F 69.1 °F 65% 30.04 in 10.0 mi SE 20.7 mph 25.3 mph N/A   Mostly Cloudy
1:53 PM 82.9 °F 85.8 °F 68.0 °F 60% 30.02 in 10.0 mi SSE 18.4 mph - N/A   Mostly Cloudy
2:26 PM 82.9 °F 86.5 °F 69.1 °F 63% 30.02 in 10.0 mi SSE 15.0 mph - N/A   Mostly Cloudy
2:53 PM 84.0 °F 87.0 °F 68.0 °F 58% 30.01 in 10.0 mi SSE 19.6 mph 24.2 mph N/A   Mostly Cloudy
3:53 PM 84.0 °F 87.8 °F 69.1 °F 61% 29.99 in 10.0 mi SSE 18.4 mph 24.2 mph N/A   Mostly Cloudy
4:53 PM 82.0 °F 85.5 °F 69.1 °F 65% 29.98 in 10.0 mi SSE 18.4 mph - N/A   Mostly Cloudy
5:53 PM 81.0 °F 84.1 °F 69.1 °F 67% 29.96 in 10.0 mi SSE 19.6 mph 26.5 mph N/A   Mostly Cloudy
6:53 PM 80.1 °F 83.2 °F 70.0 °F 71% 29.95 in 10.0 mi SSE 15.0 mph - N/A   Mostly Cloudy
7:53 PM 79.0 °F - 70.0 °F 74% 29.95 in 10.0 mi SSE 16.1 mph - N/A   Mostly Cloudy
8:53 PM 78.1 °F - 71.1 °F 79% 29.97 in 10.0 mi SE 11.5 mph - N/A   Scattered Clouds
9:53 PM 78.1 °F - 71.1 °F 79% 29.97 in 10.0 mi SSE 15.0 mph - N/A   Scattered Clouds
10:53 PM 78.1 °F - 71.1 °F 79% 29.97 in 10.0 mi SSE 11.5 mph - N/A   Scattered Clouds
11:53 PM 78.1 °F - 72.0 °F 81% 29.96 in 10.0 mi SSE 11.5 mph - N/A   Scattered Clouds